Weather History for Idabel, OK

Change the Weather History Date:

Friday, March 15, 2013

  Actual Average (KDEQ) Record (KDEQ)
Temperature  
Mean Temperature 61 °F 53 °F  
Max Temperature 78 °F 66 °F 85 °F (1977)
Min Temperature 44 °F 40 °F 18 °F (1993)
Degree Days  
Heating Degree Days 4 12  
Month to date heating degree days 210  
Since 1 July heating degree days 2701  
Cooling Degree Days 0 0  
Month to date cooling degree days 0  
Year to date cooling degree days 2  
Growing Degree Days 11 (Base 50)    
Moisture  
Dew Point 44 °F    
Average Humidity 54    
Maximum Humidity 87    
Minimum Humidity 28    
Precipitation  
Precipitation 0.00 in 0.16 in 2.60 in (1944)
Month to date precipitation 1.77  
Year to date precipitation 8.77  
Snow  
Snow 0.00 in - - ()
Month to date snowfall  
Since 1 July snowfall  
Snow Depth -    
Sea Level Pressure  
Sea Level Pressure 30.05 in    
Wind  
Wind Speed 8 mph (SSW)    
Max Wind Speed 23 mph    
Max Gust Speed 31 mph    
Visibility 10 miles    
Events      
T = Trace of Precipitation, MM = Missing Value Source: NWS Daily Summary

Daily Weather History Graph

Daily Weather History Graph

Search for Another Location

Airport:

Trip Planner

Search our weather history database for the weather conditions in past years. The results will help you decide how hot, cold, wet, or windy it might be!

Date:

Astronomy

Mar. 15, 2013 Rise Set
Actual Time 7:29 AM CDT 7:27 PM CDT
Civil Twilight 7:04 AM CDT 7:52 PM CDT
Nautical Twilight 6:35 AM CDT 8:21 PM CDT
Astronomical Twilight 6:06 AM CDT 8:50 PM CDT
Moon 9:32 AM CDT (3/15) 11:28 PM CDT (3/15)
Length of Visible Light 12h 47m
Length of Day
11h 57m
Waxing Crescent, 15% of the Moon is Illuminated
Mar 15
Waxing Crescent
Mar 19
First Quarter
Mar 27
Full
Apr 2
Last Quarter
Apr 10
New

Hourly Weather History & Observations

Time (CDT) Temp. Windchill Dew Point Humidity Pressure Visibility Wind Dir Wind Speed Gust Speed Precip Events Conditions
12:15 AM 53.6 °F - 41.0 °F 62% 30.19 in 10.0 mi SSW 3.5 mph - N/A   Clear
12:35 AM 53.6 °F - 41.0 °F 62% 30.19 in 10.0 mi South 3.5 mph - N/A   Clear
12:55 AM 51.8 °F - 41.0 °F 67% 30.19 in 10.0 mi SSE 3.5 mph - N/A   Clear
1:15 AM 53.6 °F - 41.0 °F 62% 30.18 in 10.0 mi South 4.6 mph - N/A   Clear
1:35 AM 53.6 °F - 41.0 °F 62% 30.18 in 10.0 mi SSW 4.6 mph - N/A   Clear
2:15 AM 53.6 °F - 41.0 °F 62% 30.17 in 10.0 mi South 5.8 mph - N/A   Clear
2:35 AM 51.8 °F - 41.0 °F 67% 30.16 in 10.0 mi SSW 5.8 mph - N/A   Clear
2:55 AM 51.8 °F - 41.0 °F 67% 30.16 in 10.0 mi SSW 4.6 mph - N/A   Clear
3:15 AM 51.8 °F - 41.0 °F 67% 30.16 in 10.0 mi SSW 5.8 mph - N/A   Clear
3:35 AM 51.8 °F - 41.0 °F 67% 30.15 in 10.0 mi SSW 5.8 mph - N/A   Clear
3:55 AM 51.8 °F - 42.8 °F 71% 30.15 in 10.0 mi South 5.8 mph - N/A   Clear
4:15 AM 51.8 °F - 42.8 °F 71% 30.14 in 10.0 mi South 5.8 mph - N/A   Clear
4:35 AM 50.0 °F - 41.0 °F 71% 30.14 in 10.0 mi South 5.8 mph - N/A   Clear
4:55 AM 50.0 °F - 41.0 °F 71% 30.14 in 10.0 mi Calm Calm - N/A   Clear
5:15 AM 48.2 °F - 41.0 °F 76% 30.15 in 10.0 mi Calm Calm - N/A   Clear
5:35 AM 46.4 °F 44.3 °F 39.2 °F 76% 30.15 in 10.0 mi East 4.6 mph - N/A   Clear
5:55 AM 44.6 °F 42.2 °F 39.2 °F 81% 30.15 in 10.0 mi East 4.6 mph - N/A   Clear
6:15 AM 44.6 °F 42.2 °F 41.0 °F 87% 30.15 in 10.0 mi SSE 4.6 mph - N/A   Clear
6:35 AM 44.6 °F 40.7 °F 41.0 °F 87% 30.15 in 10.0 mi South 6.9 mph - N/A   Clear
6:55 AM 46.4 °F 44.3 °F 41.0 °F 81% 30.15 in 10.0 mi South 4.6 mph - N/A   Clear
7:15 AM 44.6 °F 43.1 °F 41.0 °F 87% 30.15 in 10.0 mi South 3.5 mph - N/A   Clear
7:35 AM 46.4 °F 41.9 °F 42.8 °F 87% 30.13 in 10.0 mi South 9.2 mph - N/A   Clear
7:55 AM 48.2 °F - 44.6 °F 87% 30.12 in 10.0 mi South 8.1 mph - N/A   Clear
8:15 AM 50.0 °F - 44.6 °F 82% 30.13 in 10.0 mi South 5.8 mph - N/A   Clear
8:35 AM 51.8 °F - 46.4 °F 82% 30.13 in 10.0 mi South 6.9 mph - N/A   Clear
8:55 AM 53.6 °F - 46.4 °F 77% 30.14 in 10.0 mi SSW 5.8 mph - N/A   Clear
9:15 AM 55.4 °F - 46.4 °F 72% 30.14 in 10.0 mi SW 5.8 mph - N/A   Clear
9:35 AM 59.0 °F - 48.2 °F 67% 30.14 in 10.0 mi SW 8.1 mph - N/A   Clear
9:55 AM 60.8 °F - 50.0 °F 68% 30.13 in 10.0 mi SW 6.9 mph - N/A   Clear
10:55 AM 66.2 °F - 50.0 °F 56% 30.12 in 10.0 mi SW 12.7 mph 20.7 mph N/A   Clear
11:15 AM 68.0 °F - 50.0 °F 52% 30.12 in 10.0 mi SW 16.1 mph 20.7 mph N/A   Clear
11:35 AM 69.8 °F - 50.0 °F 49% 30.12 in 10.0 mi SW 15.0 mph 20.7 mph N/A   Clear
11:55 AM 69.8 °F - 50.0 °F 49% 30.12 in 10.0 mi SW 18.4 mph 21.9 mph N/A   Clear
12:15 PM 71.6 °F - 50.0 °F 46% 30.10 in 10.0 mi SSW 18.4 mph - N/A   Clear
12:35 PM 71.6 °F - 50.0 °F 46% 30.09 in 10.0 mi SSW 17.3 mph 25.3 mph N/A   Clear
12:55 PM 73.4 °F - 48.2 °F 41% 30.08 in 10.0 mi SW 18.4 mph 25.3 mph N/A   Clear
1:15 PM 75.2 °F - 48.2 °F 38% 30.07 in 10.0 mi SW 23.0 mph 27.6 mph N/A   Clear
1:35 PM 77.0 °F - 46.4 °F 34% 30.05 in 10.0 mi SSW 19.6 mph 24.2 mph N/A   Clear
1:55 PM 77.0 °F - 46.4 °F 34% 30.04 in 10.0 mi SSW 21.9 mph 26.5 mph N/A   Clear
2:15 PM 77.0 °F - 46.4 °F 34% 30.03 in 10.0 mi SSW 20.7 mph 26.5 mph N/A   Clear
2:35 PM 78.8 °F - 44.6 °F 30% 30.01 in 10.0 mi SSW 21.9 mph 27.6 mph N/A   Clear
2:55 PM 78.8 °F - 44.6 °F 30% 30.00 in 10.0 mi SW 21.9 mph 26.5 mph N/A   Clear
3:15 PM 78.8 °F - 44.6 °F 30% 29.99 in 10.0 mi SSW 20.7 mph 26.5 mph N/A   Clear
3:35 PM 78.8 °F - 44.6 °F 30% 29.98 in 10.0 mi SSW 18.4 mph 25.3 mph N/A   Clear
3:55 PM 78.8 °F - 44.6 °F 30% 29.98 in 10.0 mi SW 19.6 mph 26.5 mph N/A   Clear
4:15 PM 78.8 °F - 42.8 °F 28% 29.98 in 10.0 mi SW 19.6 mph 26.5 mph N/A   Clear
4:35 PM 78.8 °F - 42.8 °F 28% 29.97 in 10.0 mi SW 17.3 mph 25.3 mph N/A   Clear
4:55 PM 78.8 °F - 42.8 °F 28% 29.96 in 10.0 mi SSW 18.4 mph 27.6 mph N/A   Clear
5:15 PM 78.8 °F - 42.8 °F 28% 29.96 in 10.0 mi SW 20.7 mph 31.1 mph N/A   Clear
5:35 PM 78.8 °F - 42.8 °F 28% 29.95 in 10.0 mi SW 19.6 mph 28.8 mph N/A   Clear
5:55 PM 77.0 °F - 42.8 °F 29% 29.94 in 10.0 mi SSW 17.3 mph 23.0 mph N/A   Clear
6:15 PM 77.0 °F - 42.8 °F 29% 29.94 in 10.0 mi SSW 19.6 mph 24.2 mph N/A   Clear
6:35 PM 75.2 °F - 41.0 °F 29% 29.93 in 10.0 mi SSW 16.1 mph 20.7 mph N/A   Clear
6:55 PM 73.4 °F - 41.0 °F 31% 29.93 in 10.0 mi SW 12.7 mph - N/A   Clear
7:15 PM 73.4 °F - 41.0 °F 31% 29.93 in 10.0 mi SSW 10.4 mph - N/A   Clear
7:35 PM 69.8 °F - 42.8 °F 38% 29.93 in 10.0 mi SSW 9.2 mph - N/A   Clear
7:55 PM 69.8 °F - 42.8 °F 38% 29.93 in 10.0 mi SSW 10.4 mph - N/A   Clear
8:15 PM 68.0 °F - 42.8 °F 40% 29.92 in 10.0 mi SSW 9.2 mph - N/A   Clear
8:35 PM 66.2 °F - 42.8 °F 43% 29.93 in 10.0 mi SW 8.1 mph - N/A   Clear
8:55 PM 64.4 °F - 42.8 °F 45% 29.93 in 10.0 mi SSW 8.1 mph - N/A   Clear
9:15 PM 62.6 °F - 42.8 °F 48% 29.93 in 10.0 mi SSW 6.9 mph - N/A   Clear
9:35 PM 62.6 °F - 42.8 °F 48% 29.93 in 10.0 mi SSW 6.9 mph - N/A   Clear
9:55 PM 62.6 °F - 42.8 °F 48% 29.93 in 10.0 mi SSW 6.9 mph - N/A   Clear
10:15 PM 60.8 °F - 44.6 °F 55% 29.93 in 10.0 mi SSW 6.9 mph - N/A   Clear
10:35 PM 60.8 °F - 44.6 °F 55% 29.93 in 10.0 mi SSW 8.1 mph - N/A   Clear
10:55 PM 60.8 °F - 44.6 °F 55% 29.93 in 10.0 mi South 6.9 mph - N/A   Clear
11:15 PM 59.0 °F - 44.6 °F 59% 29.92 in 10.0 mi South 9.2 mph - N/A   Clear
11:35 PM 60.8 °F - 44.6 °F 55% 29.91 in 10.0 mi South 11.5 mph - N/A   Clear
11:55 PM 60.8 °F - 44.6 °F 55% 29.91 in 10.0 mi South 10.4 mph - N/A   Clear